When you browse on this site, cookies collect data to enhance your experience and personalize the content and advertising you see.
Visit our Privacy Policy to learn more. By continuing to use the site, you agree to this use of cookies and data.
  • In Austria
  • List of Countries
  • For 7 days
  • Water Temperature
  • Weather Map
  • News
  • Weather Widgets
  • user-avatar
    Login

    Hourly Weather Emiliano Zapata

    Today, 20 November, Wednesday

    Time Temperature Precipitation Wind Pressure Humidity
    00:00 +12°C° 0.1 mm 0 mps 565 mmHg 87%
    01:00 +12°C° 0.1 mm 0 mps 565 mmHg 88%
    02:00 +12°C° 0.1 mm 0 mps 565 mmHg 90%
    03:00 +11°C° 0 mm 0 mps 565 mmHg 91%
    04:00 +11°C° 0 mm 0 mps 565 mmHg 91%
    05:00 +11°C° 0 mm 0 mps 565 mmHg 92%
    06:00 +12°C° 0 mm 0 mps 566 mmHg 86%
    07:00 +14°C° 0 mm 0 mps 567 mmHg 79%
    08:00 +15°C° 0 mm 0 mps 568 mmHg 73%
    09:00 +17°C° 0 mm 0 mps 568 mmHg 64%
    10:00 +20°C° 0 mm 1 mps 569 mmHg 56%
    11:00 +21°C° 0 mm 1 mps 569 mmHg 47%
    12:00 +22°C° 0 mm 1 mps 569 mmHg 45%
    13:00 +21°C° 0 mm 2 mps 568 mmHg 44%
    14:00 +21°C° 0 mm 2 mps 568 mmHg 43%
    15:00 +20°C° 0 mm 2 mps 567 mmHg 48%
    16:00 +19°C° 0 mm 2 mps 567 mmHg 54%
    17:00 +18°C° 0 mm 2 mps 567 mmHg 60%
    18:00 +18°C° 0 mm 1 mps 567 mmHg 66%
    19:00 +16°C° 0 mm 1 mps 567 mmHg 72%
    20:00 +15°C° 0 mm 1 mps 567 mmHg 78%
    21:00 +15°C° 0 mm 1 mps 567 mmHg 77%
    22:00 +14°C° 0 mm 1 mps 567 mmHg 77%
    23:00 +14°C° 0 mm 1 mps 566 mmHg 76%

    Tomorrow, 21 November, Thursday

    Time Temperature Precipitation Wind Pressure Humidity
    00:00 +13°C° 0 mm 0 mps 566 mmHg 76%
    01:00 +12°C° 0 mm 0 mps 566 mmHg 76%
    02:00 +12°C° 0 mm 0 mps 565 mmHg 76%
    03:00 +12°C° 0 mm 0 mps 565 mmHg 77%
    04:00 +12°C° 0 mm 0 mps 565 mmHg 77%
    05:00 +11°C° 0 mm 0 mps 565 mmHg 77%
    06:00 +13°C° 0 mm 0 mps 566 mmHg 70%
    07:00 +14°C° 0 mm 0 mps 567 mmHg 64%
    08:00 +16°C° 0 mm 0 mps 568 mmHg 57%
    09:00 +19°C° 0 mm 1 mps 569 mmHg 49%
    10:00 +21°C° 0 mm 1 mps 569 mmHg 42%
    11:00 +21°C° 0 mm 2 mps 569 mmHg 34%
    12:00 +21°C° 0 mm 2 mps 569 mmHg 33%
    13:00 +22°C° 0 mm 3 mps 568 mmHg 32%
    14:00 +22°C° 0 mm 3 mps 568 mmHg 31%
    15:00 +20°C° 0 mm 3 mps 567 mmHg 39%
    16:00 +18°C° 0 mm 3 mps 567 mmHg 47%
    17:00 +17°C° 0 mm 3 mps 566 mmHg 55%
    18:00 +16°C° 0 mm 2 mps 566 mmHg 58%
    19:00 +15°C° 0 mm 2 mps 566 mmHg 61%
    20:00 +14°C° 0 mm 1 mps 566 mmHg 64%
    21:00 +14°C° 0 mm 1 mps 566 mmHg 64%
    22:00 +13°C° 0 mm 1 mps 565 mmHg 63%
    23:00 +12°C° 0 mm 0 mps 565 mmHg 62%

    Day after tomorrow, 22 November, Friday

    Time Temperature Precipitation Wind Pressure Humidity
    00:00 +12°C° 0 mm 0 mps 565 mmHg 63%
    01:00 +11°C° 0 mm 0 mps 564 mmHg 64%
    02:00 +12°C° 0 mm 1 mps 564 mmHg 64%
    03:00 +12°C° 0 mm 1 mps 564 mmHg 66%
    04:00 +11°C° 0 mm 1 mps 564 mmHg 68%
    05:00 +11°C° 0 mm 1 mps 564 mmHg 70%
    06:00 +13°C° 0 mm 1 mps 565 mmHg 63%
    07:00 +15°C° 0 mm 1 mps 566 mmHg 57%
    08:00 +15°C° 0 mm 0 mps 568 mmHg 51%
    09:00 +19°C° 0 mm 1 mps 568 mmHg 43%
    10:00 +19°C° 0 mm 2 mps 568 mmHg 36%
    11:00 +21°C° 0 mm 3 mps 569 mmHg 29%
    12:00 +21°C° 0 mm 3 mps 568 mmHg 28%
    13:00 +22°C° 0 mm 3 mps 568 mmHg 27%
    14:00 +22°C° 0 mm 3 mps 567 mmHg 27%
    15:00 +20°C° 0 mm 3 mps 567 mmHg 35%
    16:00 +18°C° 0 mm 3 mps 566 mmHg 42%
    17:00 +17°C° 0 mm 3 mps 565 mmHg 50%
    18:00 +16°C° 0 mm 2 mps 565 mmHg 53%
    19:00 +15°C° 0 mm 2 mps 565 mmHg 57%
    20:00 +14°C° 0 mm 1 mps 565 mmHg 60%
    21:00 +14°C° 0 mm 1 mps 565 mmHg 59%
    22:00 +13°C° 0 mm 1 mps 565 mmHg 58%
    23:00 +13°C° 0 mm 1 mps 565 mmHg 57%

    23 November, Saturday

    Time Temperature Precipitation Wind Pressure Humidity
    00:00 +13°C° 0 mm 1 mps 564 mmHg 56%
    01:00 +12°C° 0 mm 1 mps 564 mmHg 55%
    02:00 +11°C° 0 mm 0 mps 563 mmHg 54%
    03:00 +11°C° 0 mm 0 mps 564 mmHg 53%
    04:00 +10°C° 0 mm 0 mps 564 mmHg 53%
    05:00 +10°C° 0 mm 0 mps 564 mmHg 52%
    06:00 +12°C° 0 mm 0 mps 565 mmHg 47%
    07:00 +14°C° 0 mm 0 mps 566 mmHg 43%
    08:00 +16°C° 0 mm 0 mps 568 mmHg 39%
    09:00 +19°C° 0 mm 1 mps 568 mmHg 37%
    10:00 +20°C° 0 mm 2 mps 569 mmHg 36%
    11:00 +21°C° 0 mm 2 mps 569 mmHg 34%
    12:00 +21°C° 0 mm 2 mps 569 mmHg 34%
    13:00 +22°C° 0 mm 3 mps 568 mmHg 35%
    14:00 +22°C° 0 mm 3 mps 568 mmHg 35%
    15:00 +20°C° 0 mm 3 mps 568 mmHg 44%
    16:00 +19°C° 0 mm 3 mps 567 mmHg 53%
    17:00 +17°C° 0 mm 3 mps 566 mmHg 62%
    18:00 +16°C° 0 mm 3 mps 566 mmHg 68%
    19:00 +15°C° 0 mm 2 mps 566 mmHg 75%
    20:00 +14°C° 0 mm 2 mps 566 mmHg 81%
    21:00 +13°C° 0 mm 1 mps 566 mmHg 83%
    22:00 +13°C° 0 mm 1 mps 566 mmHg 85%
    23:00 +12°C° 0 mm 1 mps 565 mmHg 87%

    24 November, Sunday

    Time Temperature Precipitation Wind Pressure Humidity
    00:00 +12°C° 0 mm 1 mps 565 mmHg 87%
    01:00 +11°C° 0 mm 1 mps 565 mmHg 88%
    02:00 +11°C° 0 mm 1 mps 564 mmHg 88%
    03:00 +11°C° 0 mm 1 mps 564 mmHg 88%
    04:00 +11°C° 0 mm 1 mps 564 mmHg 88%
    05:00 +10°C° 0 mm 1 mps 564 mmHg 88%
    06:00 +12°C° 0 mm 1 mps 566 mmHg 82%
    07:00 +13°C° 0 mm 1 mps 567 mmHg 75%
    08:00 +15°C° 0 mm 1 mps 568 mmHg 69%
    09:00 +16°C° 0 mm 1 mps 568 mmHg 63%
    10:00 +19°C° 0 mm 1 mps 569 mmHg 57%
    11:00 +20°C° 0 mm 1 mps 569 mmHg 52%
    12:00 +21°C° 0 mm 1 mps 569 mmHg 50%
    13:00 +21°C° 0 mm 1 mps 568 mmHg 47%
    14:00 +22°C° 0 mm 1 mps 568 mmHg 45%
    15:00 +20°C° 0 mm 1 mps 567 mmHg 52%
    16:00 +19°C° 0 mm 1 mps 567 mmHg 59%
    17:00 +17°C° 0 mm 2 mps 566 mmHg 67%
    18:00 +16°C° 0 mm 1 mps 566 mmHg 73%
    19:00 +15°C° 0 mm 1 mps 566 mmHg 80%
    20:00 +14°C° 0 mm 1 mps 566 mmHg 86%
    21:00 +14°C° 0 mm 1 mps 566 mmHg 88%
    22:00 +13°C° 0 mm 1 mps 565 mmHg 89%
    23:00 +13°C° 0 mm 1 mps 565 mmHg 91%

    25 November, Monday

    Time Temperature Precipitation Wind Pressure Humidity
    00:00 +13°C° 0 mm 1 mps 565 mmHg 91%
    01:00 +12°C° 0 mm 1 mps 564 mmHg 91%
    02:00 +12°C° 0 mm 1 mps 564 mmHg 91%
    03:00 +12°C° 0 mm 1 mps 564 mmHg 91%
    04:00 +11°C° 0 mm 0 mps 564 mmHg 91%
    05:00 +11°C° 0 mm 0 mps 564 mmHg 90%
    06:00 +12°C° 0 mm 0 mps 564 mmHg 84%
    07:00 +15°C° 0 mm 1 mps 565 mmHg 77%
    08:00 +16°C° 0 mm 1 mps 566 mmHg 71%
    09:00 +19°C° 0 mm 1 mps 567 mmHg 60%
    10:00 +19°C° 0 mm 2 mps 567 mmHg 50%
    11:00 +21°C° 0 mm 2 mps 568 mmHg 40%
    12:00 +21°C° 0 mm 3 mps 567 mmHg 38%
    13:00 +22°C° 0 mm 3 mps 567 mmHg 36%
    14:00 +22°C° 0 mm 3 mps 567 mmHg 34%
    15:00 +20°C° 0 mm 3 mps 566 mmHg 40%
    16:00 +19°C° 0 mm 3 mps 565 mmHg 47%
    17:00 +17°C° 0 mm 2 mps 565 mmHg 54%
    18:00 +16°C° 0 mm 2 mps 564 mmHg 60%
    19:00 +15°C° 0 mm 1 mps 564 mmHg 65%
    20:00 +14°C° 0 mm 1 mps 564 mmHg 71%
    21:00 +14°C° 0 mm 1 mps 564 mmHg 74%
    22:00 +13°C° 0 mm 1 mps 564 mmHg 76%
    23:00 +13°C° 0 mm 1 mps 563 mmHg 78%
    Show more